C/2022 L2 ( ATLAS )

Japanese version
Home page
Updated on May 28, 2023

---------------------------------------------------------------------

* Profile

Discovery Date June 10, 2022
Magnitude 18.4 mag
Discoverer Asteroid Terrestrial-Impact Last Alert System (ATLAS) search program

* Pictures

* Orbital Elements

Epoch 2023 Feb. 25.0 TT = JDT 2460000.5
T 2024 Mar. 12.32907 TT                                 Rudenko
q   2.6920514            (2000.0)            P               Q
z  -0.0004920      Peri.  199.94799     -0.86474927     -0.11251906
 +/-0.0000021      Node    39.24219     -0.28698972     +0.91048616
e   1.0013246      Incl.  129.31353     -0.41212328     -0.39793769
>From 879 observations 2022 May 20-2023 Mar. 19, mean residual 0".6.

* Finding Charts

* Magnitudes Graph

        m1 = 8.0 + 5 log d + 7.5 log r

---------------------------------------------------------------------

The orbital elements are published on M.P.E.C. 2023-F81.
The charts are made with StellaNavigator Ver.10 (AstroArts).
The magnitudes graphs are made with Comet for Windows.

---------------------------------------------------------------------

Copyright(C) Seiichi Yoshida (comet@aerith.net). All rights reserved.